Погода в Туркменабате

Погода в Туркменабате : погода сейчас, прогноз погоды и архив. Всё, что Вы хотите узнать о погоде в Туркменабате!

Хотите узнать прогноз погоды в Туркменабате? Тогда Вам сюда: Погода в Туркменабате

Поиск расширенной информации на нашем сайте:

Другие новости

Новости СМИ2

Главная страница сайта

Новости сайта

03.07.2017

Напоминаем, что на нашем специализированном сайте Метеоцентр.Азия вы можете получить высокодетализированные автоматические прогнозы погоды по пунктам России, СНГ и мира в авиационном формате (включающие направление и скорость ветра, видимость, явления погоды, количество и форму облачности, нижнюю и верхнюю границу облачности).


Погода в Туркменабате - сегодня

Время (UTC), дата Ветер
(°,м/с) 
Видим.   Явления Облачность Т
(°С)
Тd
(°С)
f(%) Тe
(°С)
Pmin
(гПа)
dP
(гПа)
Po
(мм)
O2
(г/м3)
Тmin Tmax R s Состояние
почвы
21 23.05.18 020 (С) 10 км    ясно 
+22.3 +6.4 36 +22  1016.9  -0.4  746  277           
00 24.05.18 020 (С) 10 км    ясно 
+18.5 +7.3 48 +19  1016.8  -0.3  746  280           
03 24.05.18 020 (С) 10 км    ясно 
+21.8 +10 47 +23  1016.7  0.1  746  277           
06 24.05.18 020 (С) 10 км    ясно 
+28.5 +11.1 34 +31  1016.5  0.3  746  270  +18.2         
09 24.05.18 360 (С) 10 км    ясно 
+31.7 +12.1 30 +36  1014.6  -1.7  745  267           
12 24.05.18 020 (С) 10 км    ясно 
+31.9 +11.1 28 +35  1012.7  -1.8  743  266           
15 24.05.18 020 (С) 10 км    ясно 
+28.7 +10.2 32 +30  1012.4  -0.5  743  269    +32.1       
18 24.05.18 020 (С) 10 км    ясно 
+23.3 +2.3 25 +23  1012.5  -0.3  743  275    +32.1       
21 24.05.18 020 (С) 10 км    ясно 
+19.7 +3 33 +20  1011.8  -1  742  278           
00 25.05.18 360 (С) 10 км    ясно 
+16.1 +3.8 44 +16  1011.1  -1  741  281           
03 25.05.18 360 (С) 10 км    ясно 
+19.1 +5.8 42 +19  1011  0.2  741  278  +15.6        сухая 
06 25.05.18 360 (С) 10 км    ясно 
+27.1 +2.9 21 +27  1010.3  -0.1  741  271  +15.6         
09 25.05.18 090 (В) 10 км    ясно 
+33.8 -1.2 11 +34  1008.2  -1.5  740  266           
12 25.05.18 090 (В) 10 км    ясно 
+34.7 -0.2 11 +35  1007.2  -0.4  740  264           
15 25.05.18 110 (В) 10 км    ясно 
+32.7 +3.2 16 +33  1007.3  740  266    +34.7       
18 25.05.18 160 (Ю) 10 км    ясно 
+26.3 +4.6 25 +26  1008.2  0.4  740  271    +34.7       
21 25.05.18 тихо ()   10 км    ясно 
+21.1 +5.9 37 +21  1008.3  -0.3  740  276           
00 26.05.18 140 (ЮВ) 10 км    ясно 
+18.1 +5.9 45 +19  1008.3  -0.2  739  278           
03 26.05.18 тихо ()   10 км    ясно 
+24.5 +5.1 29 +25  1008.2  0.4  740  273           
06 26.05.18 180 (Ю) 10 км    ясно 
+33.6 +2.5 14 +34  1007.4  -0.2  740  265  +17.5         
09 26.05.18 200 (Ю) 10 км    ясно 
+37 -0.7 9 +37  1006.1  -1  739  262           
12 26.05.18 230 (ЮЗ) 10 км    ясно 
+37.1 -1.9 8 +37  1004.5  -1.6  738  262           
15 26.05.18 220 (ЮЗ) 10 км    3/0 верхняя 
[Ci fib]
+35.1 -3.6 8 +35  1004.4  -0.3  737  264    +37.1       
18 26.05.18 220 (ЮЗ) 10 км    ясно 
+26.3 -0.2 18 +26  1005.5  0.5  738  271    +37.1       
21 26.05.18 130 (ЮВ) 10 км    ясно 
+21.3 -0.2 24 +21  1005.9  738  276           
Время (UTC), дата Ветер
(°,м/с) 
Видим.   Явления Облачность Т
(°С)
Тd
(°С)
f(%) Тe
(°С)
Pmin
(гПа)
dP
(гПа)
Po
(мм)
O2
(г/м3)
Тmin Tmax R s Состояние
почвы

Для получения пояснительной информации подведите курсор к названию столбца.

ПОГОДА в Туркменабате - архив

Всё, что Вы хотите узнать о погоде в Туркменабате - удобно и подробно!

Выберите нужную дату (начиная с 1 января 2015* года) и нажмите кнопку "Найти".
Будут отображены архивные сводки погоды по пункту Туркменабат, начиная с указанной даты.


Отображать данные в формате CSV (для использования в таблицах Excel)


Внимание! Наш архив погоды предназначен исключительно для личного некоммерческого использования в познавательных целях. Если Вам необходимы официальные справки о состоянии погоды (для производственных, юридических, коммерческих и т.п. целей), обращайтесь в органы Росгидромета.

*Примечание: данная дата относится к архиву по метеостанциям СССР (Россия, СНГ, Балтия).
Архив по метеостанциям Зарубежной Европы и Азии (кроме Китая) хранится 10 дней, по другим регионам земного шара (Китай, Африка, Америка, Австралия, Океания) - 1 день.

Туркменабат - район местоположения метеостанции


Название, широта, долгота, высота метеостанции:
Туркменабат (Чарджоу) 39.1°ш. 63.6°д. 190 м над ур. моря [Туркменистан]

Дополнительная информация

В oтличие oт бoльшинства пoгoдных сайтoв мы публикуем пoдрoбную метеoинфoрмацию в детальнoм прoфессиoнальнoм фoрмате.

Характеристики температуры и влажнoсти вoздуха измеряются на высoте 2 м в тени вдали oт зданий и деревьев.
Скoрoсть ветра измеряется на высoте 10 м (на урoвне рoста челoвека скoрoсть ветра ниже в 1.5-2 раза). Если метеoстанция нахoдится в гoрoде или в лесу, тo скoрoсть ветра занижена на 2-4 м/с пo сравнению с oткрытым местoм. Скoрoсть ветра над акватoриями крупных рек и oзёр, а также на вершинах хoлмoв на 2-5 м/с выше, чем в oбычных услoвиях.
Атмoсфернoе давление в разных тoчках местнoсти мoжет значительнo oтличаться oт давления на метеoстанции, в зависимoсти oт услoвий рельефа (при пoдъёме на 10 м давление пoнижается примернo на 1 мм рт.ст.).